DLH1FR EDDM-LGIR

Flight info

Callsign DLH1FR
Flight time 2h 22m
Altitude 33000
Route VAVOR M867 RADIZ DCT NEMEK DCT ETOBI DCT AKIKA DCT MAVAR DCT BITLA UN132 KEA UL607 GIVIS UT514 XAVIS
Aircraft A321/M-SDE1FGHIJ1RWXYZ/LB1

Departure

Time 2026-05-06 17:02
Airport Munich Airport (EDDM)

Arrival

Time 2026-05-06 19:24
Airport Heraklion International Nikos Kazantzakis Airport (LGIR)
Time Latitude Longitude Altitude Speed Heading
2026-05-06 16:24 48.35257 11.79338 1502 ft 0 kts 264°
2026-05-06 16:51 48.35257 11.79339 1501 ft 1 kts 264°
2026-05-06 16:51 48.35259 11.79363 1501 ft 3 kts 261°
2026-05-06 16:51 48.35263 11.79393 1501 ft 3 kts 256°
2026-05-06 16:52 48.35268 11.79422 1501 ft 3 kts 250°
2026-05-06 16:52 48.35276 11.79450 1501 ft 3 kts 239°
2026-05-06 16:52 48.35287 11.79473 1501 ft 3 kts 212°
2026-05-06 16:52 48.35300 11.79481 1501 ft 1 kts 174°
2026-05-06 16:53 48.35305 11.79480 1501 ft 0 kts 173°
2026-05-06 16:55 48.35293 11.79482 1501 ft 5 kts 173°
2026-05-06 16:55 48.35238 11.79492 1501 ft 11 kts 173°
2026-05-06 16:55 48.35154 11.79506 1501 ft 13 kts 173°
2026-05-06 16:56 48.35057 11.79522 1501 ft 13 kts 173°
2026-05-06 16:56 48.34990 11.79576 1501 ft 11 kts 98°
2026-05-06 16:56 48.34968 11.79677 1502 ft 8 kts 161°
2026-05-06 16:56 48.34966 11.79678 1502 ft 0 kts 175°
2026-05-06 16:57 48.34965 11.79678 1502 ft 0 kts 175°
2026-05-06 16:58 48.34957 11.79679 1502 ft 3 kts 175°
2026-05-06 16:58 48.34918 11.79684 1502 ft 8 kts 175°
2026-05-06 16:58 48.34844 11.79695 1502 ft 12 kts 171°
2026-05-06 16:59 48.34810 11.79790 1501 ft 12 kts 84°
2026-05-06 16:59 48.34821 11.79929 1501 ft 15 kts 85°
2026-05-06 16:59 48.34832 11.80094 1501 ft 17 kts 85°
2026-05-06 16:59 48.34781 11.80220 1501 ft 15 kts 143°
2026-05-06 17:00 48.34694 11.80251 1501 ft 10 kts 175°
2026-05-06 17:00 48.34613 11.80264 1501 ft 13 kts 172°
2026-05-06 17:00 48.34514 11.80281 1501 ft 15 kts 190°
2026-05-06 17:00 48.34457 11.80157 1501 ft 16 kts 267°
2026-05-06 17:01 48.34440 11.79982 1501 ft 19 kts 263°
2026-05-06 17:01 48.34410 11.79572 1501 ft 74 kts 262°
2026-05-06 17:01 48.34320 11.78444 1502 ft 141 kts 265°
2026-05-06 17:01 48.34185 11.76721 1560 ft 183 kts 263°
2026-05-06 17:02 48.34047 11.74854 2202 ft 183 kts 264°
2026-05-06 17:02 48.33877 11.72888 2616 ft 196 kts 257°
2026-05-06 17:02 48.33192 11.71118 3068 ft 203 kts 220°
2026-05-06 17:02 48.31927 11.70277 3457 ft 202 kts 188°
2026-05-06 17:03 48.30502 11.70425 3640 ft 211 kts 170°
2026-05-06 17:03 48.29018 11.70884 3774 ft 223 kts 164°
2026-05-06 17:03 48.27569 11.71875 3912 ft 235 kts 148°
2026-05-06 17:03 48.26214 11.73265 4272 ft 237 kts 143°
2026-05-06 17:04 48.24845 11.74776 4620 ft 248 kts 144°
2026-05-06 17:04 48.23401 11.76280 4995 ft 263 kts 146°
2026-05-06 17:04 48.21817 11.77838 5482 ft 272 kts 147°
2026-05-06 17:04 48.20223 11.79416 6116 ft 276 kts 146°
2026-05-06 17:05 48.18649 11.81017 6754 ft 279 kts 144°
2026-05-06 17:05 48.17192 11.83006 7380 ft 282 kts 132°
2026-05-06 17:05 48.15933 11.85271 8001 ft 285 kts 128°
2026-05-06 17:05 48.14726 11.87596 8613 ft 287 kts 128°
2026-05-06 17:06 48.13482 11.89963 9230 ft 289 kts 129°
2026-05-06 17:06 48.12190 11.92325 9873 ft 290 kts 131°
2026-05-06 17:06 48.10885 11.94657 10356 ft 298 kts 132°
2026-05-06 17:06 48.09518 11.97095 10583 ft 314 kts 132°
2026-05-06 17:07 48.08082 11.99673 10767 ft 330 kts 133°
2026-05-06 17:07 48.06505 12.02098 10933 ft 343 kts 143°
2026-05-06 17:07 48.04499 12.04346 11124 ft 356 kts 148°
2026-05-06 17:07 48.02426 12.06418 11512 ft 362 kts 149°
2026-05-06 17:08 48.00328 12.08447 12052 ft 363 kts 150°
2026-05-06 17:08 47.98215 12.10514 12614 ft 365 kts 150°
2026-05-06 17:08 47.96079 12.12666 13132 ft 367 kts 149°
2026-05-06 17:08 47.93965 12.14842 13618 ft 370 kts 149°
2026-05-06 17:09 47.91931 12.17220 14128 ft 373 kts 145°
2026-05-06 17:09 47.89965 12.19687 14772 ft 371 kts 144°
2026-05-06 17:09 47.88026 12.22177 15185 ft 375 kts 144°
2026-05-06 17:09 47.86019 12.24752 15363 ft 384 kts 145°
2026-05-06 17:10 47.83929 12.27405 15463 ft 395 kts 145°
2026-05-06 17:10 47.81831 12.30033 15779 ft 398 kts 145°
2026-05-06 17:10 47.79704 12.32686 16277 ft 398 kts 145°
2026-05-06 17:10 47.77593 12.35314 16930 ft 392 kts 146°
2026-05-06 17:11 47.75507 12.37910 17513 ft 390 kts 146°
2026-05-06 17:11 47.73423 12.40516 17935 ft 392 kts 146°
2026-05-06 17:11 47.71332 12.43148 18300 ft 394 kts 146°
2026-05-06 17:11 47.69833 12.45012 18563 ft 397 kts 146°
2026-05-06 17:12 47.67704 12.47647 18811 ft 402 kts 146°
2026-05-06 17:12 47.65505 12.50337 19110 ft 405 kts 146°
2026-05-06 17:12 47.63323 12.52996 19433 ft 409 kts 146°
2026-05-06 17:12 47.61189 12.55823 19754 ft 414 kts 143°
2026-05-06 17:13 47.59125 12.58718 20168 ft 415 kts 142°
2026-05-06 17:13 47.57040 12.61719 20685 ft 413 kts 141°
2026-05-06 17:13 47.54974 12.64709 20957 ft 417 kts 141°
2026-05-06 17:13 47.52868 12.67710 21118 ft 423 kts 142°
2026-05-06 17:14 47.50738 12.70712 21391 ft 426 kts 142°
2026-05-06 17:14 47.48576 12.73741 21696 ft 428 kts 142°
2026-05-06 17:14 47.46413 12.76773 21997 ft 430 kts 142°
2026-05-06 17:14 47.44245 12.79818 22294 ft 432 kts 142°
2026-05-06 17:15 47.42060 12.82895 22571 ft 434 kts 141°
2026-05-06 17:15 47.39877 12.85971 22845 ft 436 kts 142°
2026-05-06 17:15 47.37683 12.89051 23123 ft 438 kts 142°
2026-05-06 17:15 47.35452 12.92173 23394 ft 440 kts 142°
2026-05-06 17:16 47.33218 12.95293 23652 ft 442 kts 142°
2026-05-06 17:16 47.30983 12.98412 23908 ft 444 kts 142°
2026-05-06 17:16 47.28744 13.01535 24166 ft 446 kts 142°
2026-05-06 17:16 47.26491 13.04674 24422 ft 447 kts 142°
2026-05-06 17:17 47.24214 13.07842 24670 ft 448 kts 142°
2026-05-06 17:17 47.21946 13.10988 24901 ft 450 kts 142°
2026-05-06 17:17 47.19662 13.14159 25123 ft 452 kts 142°
2026-05-06 17:17 47.17386 13.17321 25338 ft 454 kts 142°
2026-05-06 17:18 47.15079 13.20522 25561 ft 456 kts 142°
2026-05-06 17:18 47.12763 13.23726 25782 ft 457 kts 142°
2026-05-06 17:18 47.10461 13.26901 26001 ft 458 kts 142°
2026-05-06 17:18 47.08130 13.30114 26221 ft 459 kts 142°
2026-05-06 17:19 47.05797 13.33329 26450 ft 460 kts 142°
2026-05-06 17:19 47.03452 13.36558 26684 ft 461 kts 142°
2026-05-06 17:19 47.01105 13.39783 26831 ft 463 kts 142°
2026-05-06 17:19 46.98765 13.42996 27122 ft 462 kts 143°
2026-05-06 17:20 46.96429 13.46201 27394 ft 461 kts 143°
2026-05-06 17:20 46.94076 13.49424 27648 ft 461 kts 143°
2026-05-06 17:20 46.91738 13.52618 27880 ft 460 kts 143°
2026-05-06 17:20 46.89365 13.55852 28141 ft 460 kts 143°
2026-05-06 17:21 46.87031 13.59035 28395 ft 459 kts 143°
2026-05-06 17:21 46.84727 13.62173 28640 ft 459 kts 143°
2026-05-06 17:21 46.82387 13.65358 28848 ft 459 kts 143°
2026-05-06 17:21 46.80072 13.68503 29083 ft 458 kts 143°
2026-05-06 17:22 46.77733 13.71676 29316 ft 458 kts 143°
2026-05-06 17:22 46.75400 13.74842 29548 ft 457 kts 143°
2026-05-06 17:22 46.73038 13.78042 29758 ft 457 kts 143°
2026-05-06 17:22 46.70707 13.81194 29963 ft 457 kts 143°
2026-05-06 17:23 46.68384 13.84325 30182 ft 456 kts 143°
2026-05-06 17:23 46.66049 13.87467 30407 ft 456 kts 143°
2026-05-06 17:23 46.63734 13.90585 30658 ft 454 kts 143°
2026-05-06 17:23 46.61415 13.93708 30868 ft 454 kts 143°
2026-05-06 17:24 46.59105 13.96817 31099 ft 453 kts 143°
2026-05-06 17:24 46.56789 13.99931 31325 ft 452 kts 143°
2026-05-06 17:24 46.54486 14.03017 31512 ft 452 kts 143°
2026-05-06 17:24 46.52168 14.06120 31712 ft 451 kts 143°
2026-05-06 17:25 46.49895 14.09156 31905 ft 450 kts 143°
2026-05-06 17:25 46.47567 14.12264 32138 ft 449 kts 143°
2026-05-06 17:25 46.45284 14.15310 32328 ft 448 kts 143°
2026-05-06 17:25 46.42990 14.18366 32534 ft 447 kts 143°
2026-05-06 17:26 46.40695 14.21418 32733 ft 446 kts 143°
2026-05-06 17:26 46.38404 14.24465 32887 ft 447 kts 143°
2026-05-06 17:26 46.36117 14.27502 32898 ft 446 kts 144°
2026-05-06 17:27 46.31536 14.33570 32898 ft 446 kts 144°
2026-05-06 17:27 46.26959 14.39622 32905 ft 446 kts 144°
2026-05-06 17:28 46.22384 14.45651 32910 ft 445 kts 144°
2026-05-06 17:28 46.17807 14.51671 32913 ft 446 kts 144°
2026-05-06 17:29 46.13222 14.57692 32913 ft 446 kts 144°
2026-05-06 17:29 46.08628 14.63716 32918 ft 446 kts 144°
2026-05-06 17:30 46.04034 14.69717 32922 ft 446 kts 144°
2026-05-06 17:30 45.99435 14.75710 32923 ft 446 kts 144°
2026-05-06 17:31 45.94849 14.81680 32909 ft 446 kts 144°
2026-05-06 17:31 45.90230 14.87672 32868 ft 447 kts 144°
2026-05-06 17:32 45.85616 14.93647 32871 ft 447 kts 144°
2026-05-06 17:32 45.80994 14.99620 32869 ft 447 kts 144°
2026-05-06 17:33 45.77147 15.04576 32870 ft 448 kts 144°
2026-05-06 17:33 45.72483 15.10574 32891 ft 447 kts 144°
2026-05-06 17:34 45.67881 15.16481 32938 ft 446 kts 144°
2026-05-06 17:34 45.63254 15.22400 32961 ft 446 kts 144°
2026-05-06 17:35 45.58594 15.28351 32926 ft 447 kts 144°
2026-05-06 17:35 45.54315 15.34897 32904 ft 454 kts 136°
2026-05-06 17:36 45.48284 15.45338 32867 ft 455 kts 136°
2026-05-06 17:36 45.44212 15.52149 32847 ft 453 kts 137°
2026-05-06 17:37 45.40076 15.58996 32865 ft 454 kts 136°
2026-05-06 17:37 45.35988 15.65848 32867 ft 455 kts 136°
2026-05-06 17:38 45.31892 15.72698 32866 ft 455 kts 136°
2026-05-06 17:38 45.27810 15.79475 32876 ft 456 kts 136°
2026-05-06 17:39 45.23651 15.86367 32901 ft 456 kts 137°
2026-05-06 17:39 45.19516 15.93214 32888 ft 457 kts 136°
2026-05-06 17:40 45.15385 16.00038 32892 ft 457 kts 137°
2026-05-06 17:40 45.11224 16.06876 32935 ft 457 kts 136°
2026-05-06 17:41 45.07065 16.13715 32933 ft 458 kts 136°
2026-05-06 17:41 45.02901 16.20538 32902 ft 459 kts 136°
2026-05-06 17:42 44.98720 16.27370 32875 ft 460 kts 136°
2026-05-06 17:42 44.94517 16.34226 32877 ft 461 kts 136°
2026-05-06 17:43 44.90311 16.41065 32890 ft 462 kts 136°
2026-05-06 17:43 44.86076 16.47934 32885 ft 464 kts 136°
2026-05-06 17:44 44.81831 16.54802 32885 ft 465 kts 136°
2026-05-06 17:44 44.77572 16.61682 32888 ft 467 kts 136°
2026-05-06 17:45 44.73309 16.68549 32923 ft 467 kts 136°
2026-05-06 17:45 44.69021 16.75438 32976 ft 467 kts 136°
2026-05-06 17:46 44.64738 16.82307 32971 ft 468 kts 136°
2026-05-06 17:46 44.60447 16.89169 32969 ft 468 kts 136°
2026-05-06 17:47 44.55973 16.95722 32968 ft 464 kts 141°
2026-05-06 17:47 44.51339 17.02019 32955 ft 463 kts 141°
2026-05-06 17:48 44.46708 17.08307 32916 ft 464 kts 140°
2026-05-06 17:48 44.42093 17.14640 32894 ft 464 kts 140°
2026-05-06 17:49 44.37499 17.20899 32898 ft 465 kts 140°
2026-05-06 17:49 44.32831 17.27225 32903 ft 465 kts 140°
2026-05-06 17:50 44.28190 17.33521 32917 ft 466 kts 140°
2026-05-06 17:50 44.23541 17.39809 32963 ft 465 kts 140°
2026-05-06 17:51 44.18887 17.46085 32959 ft 466 kts 140°
2026-05-06 17:51 44.14229 17.52355 32997 ft 465 kts 140°
2026-05-06 17:52 44.09568 17.58615 33007 ft 465 kts 139°
2026-05-06 17:52 44.04912 17.64853 32992 ft 466 kts 140°
2026-05-06 17:53 44.00225 17.71112 32961 ft 467 kts 139°
2026-05-06 17:53 43.95548 17.77353 32961 ft 466 kts 139°
2026-05-06 17:54 43.90864 17.83588 32945 ft 467 kts 139°
2026-05-06 17:54 43.86241 17.89723 32982 ft 466 kts 140°
2026-05-06 17:55 43.81562 17.95918 32973 ft 466 kts 140°
2026-05-06 17:55 43.76866 18.02121 32980 ft 466 kts 139°
2026-05-06 17:56 43.72186 18.08295 32998 ft 465 kts 139°
2026-05-06 17:56 43.67492 18.14471 32977 ft 466 kts 140°
2026-05-06 17:57 43.62789 18.20637 32980 ft 466 kts 140°
2026-05-06 17:57 43.58083 18.26804 32968 ft 467 kts 140°
2026-05-06 17:58 43.53361 18.32974 32979 ft 467 kts 140°
2026-05-06 17:58 43.48645 18.39118 32980 ft 467 kts 140°
2026-05-06 17:59 43.43910 18.45276 32977 ft 468 kts 140°
2026-05-06 17:59 43.39171 18.51428 32972 ft 469 kts 140°
2026-05-06 18:00 43.34389 18.57615 32990 ft 469 kts 140°
2026-05-06 18:00 43.29634 18.63757 32981 ft 470 kts 140°
2026-05-06 18:01 43.24898 18.69864 32986 ft 470 kts 140°
2026-05-06 18:01 43.20124 18.76005 32995 ft 471 kts 140°
2026-05-06 18:02 43.15311 18.82178 33037 ft 470 kts 140°
2026-05-06 18:02 43.10540 18.88286 33051 ft 471 kts 140°
2026-05-06 18:03 43.05782 18.94366 33057 ft 471 kts 140°
2026-05-06 18:03 43.00957 19.00513 33081 ft 471 kts 140°
2026-05-06 18:04 42.96158 19.06613 33097 ft 471 kts 140°
2026-05-06 18:04 42.91360 19.12702 33104 ft 471 kts 140°
2026-05-06 18:05 42.86573 19.18765 33108 ft 471 kts 140°
2026-05-06 18:05 42.81757 19.24847 33100 ft 471 kts 140°
2026-05-06 18:06 42.76946 19.30908 33088 ft 471 kts 140°
2026-05-06 18:06 42.72138 19.36952 33072 ft 471 kts 140°
2026-05-06 18:07 42.67325 19.42997 33059 ft 471 kts 140°
2026-05-06 18:07 42.62510 19.49022 33090 ft 470 kts 140°
2026-05-06 18:08 42.57699 19.55034 33074 ft 470 kts 140°
2026-05-06 18:08 42.52850 19.60990 33049 ft 469 kts 143°
2026-05-06 18:09 42.47792 19.66551 33035 ft 469 kts 144°
2026-05-06 18:09 42.42670 19.72059 33036 ft 469 kts 144°
2026-05-06 18:10 42.38439 19.76645 33038 ft 469 kts 144°
2026-05-06 18:10 42.33330 19.82205 33083 ft 468 kts 144°
2026-05-06 18:11 42.28234 19.87710 33121 ft 468 kts 144°
2026-05-06 18:11 42.23149 19.93186 33084 ft 468 kts 144°
2026-05-06 18:12 42.18061 19.98666 33042 ft 469 kts 144°
2026-05-06 18:12 42.12948 20.04157 33030 ft 469 kts 144°
2026-05-06 18:13 42.07841 20.09629 33034 ft 469 kts 144°
2026-05-06 18:13 42.02763 20.15058 33043 ft 469 kts 144°
2026-05-06 18:14 41.97618 20.20551 33055 ft 469 kts 144°
2026-05-06 18:14 41.92536 20.25962 33068 ft 469 kts 144°
2026-05-06 18:15 41.87396 20.31423 33115 ft 468 kts 144°
2026-05-06 18:15 41.82285 20.36840 33103 ft 468 kts 144°
2026-05-06 18:16 41.77171 20.42252 33078 ft 469 kts 144°
2026-05-06 18:16 41.72043 20.47672 33047 ft 469 kts 144°
2026-05-06 18:17 41.66913 20.53073 33045 ft 469 kts 145°
2026-05-06 18:17 41.61782 20.58490 33039 ft 470 kts 144°
2026-05-06 18:18 41.56658 20.63917 33041 ft 470 kts 144°
2026-05-06 18:18 41.51522 20.69327 33044 ft 471 kts 144°
2026-05-06 18:19 41.46369 20.74736 33080 ft 473 kts 144°
2026-05-06 18:19 41.41153 20.80213 33096 ft 480 kts 144°
2026-05-06 18:20 41.35887 20.85729 33103 ft 482 kts 144°
2026-05-06 18:20 41.30623 20.91224 33109 ft 481 kts 144°
2026-05-06 18:21 41.25353 20.96719 33113 ft 480 kts 144°
2026-05-06 18:21 41.20098 21.02187 33115 ft 480 kts 144°
2026-05-06 18:22 41.14830 21.07657 33128 ft 480 kts 144°
2026-05-06 18:22 41.09580 21.13096 33144 ft 479 kts 144°
2026-05-06 18:23 41.04357 21.18493 33120 ft 479 kts 144°
2026-05-06 18:23 40.99020 21.23999 33116 ft 479 kts 144°
2026-05-06 18:24 40.93800 21.29378 33136 ft 478 kts 144°
2026-05-06 18:24 40.88547 21.34769 33098 ft 478 kts 144°
2026-05-06 18:25 40.83130 21.39950 33071 ft 478 kts 147°
2026-05-06 18:25 40.77690 21.44980 33076 ft 477 kts 147°
2026-05-06 18:26 40.72258 21.50019 33102 ft 476 kts 147°
2026-05-06 18:26 40.66850 21.55049 33072 ft 477 kts 147°
2026-05-06 18:27 40.61413 21.60077 33042 ft 477 kts 147°
2026-05-06 18:27 40.55986 21.65082 33052 ft 477 kts 147°
2026-05-06 18:28 40.50557 21.70092 33093 ft 476 kts 147°
2026-05-06 18:28 40.45124 21.75087 33070 ft 476 kts 147°
2026-05-06 18:29 40.39699 21.80067 33084 ft 476 kts 147°
2026-05-06 18:29 40.34260 21.85050 33083 ft 476 kts 147°
2026-05-06 18:30 40.28831 21.90012 33128 ft 475 kts 147°
2026-05-06 18:30 40.23408 21.94961 33113 ft 475 kts 147°
2026-05-06 18:31 40.17980 21.99907 33114 ft 475 kts 147°
2026-05-06 18:31 40.12554 22.04840 33102 ft 475 kts 147°
2026-05-06 18:32 40.07128 22.09761 33096 ft 475 kts 147°
2026-05-06 18:32 40.01693 22.14679 33089 ft 475 kts 147°
2026-05-06 18:33 39.96302 22.19545 33088 ft 475 kts 147°
2026-05-06 18:33 39.90872 22.24445 33087 ft 475 kts 147°
2026-05-06 18:34 39.85425 22.29352 33095 ft 475 kts 147°
2026-05-06 18:34 39.79993 22.34226 33103 ft 475 kts 147°
2026-05-06 18:35 39.74555 22.39099 33084 ft 475 kts 147°
2026-05-06 18:35 39.69103 22.43981 33055 ft 475 kts 147°
2026-05-06 18:36 39.63653 22.48848 33015 ft 476 kts 147°
2026-05-06 18:36 39.58192 22.53712 33006 ft 476 kts 147°
2026-05-06 18:37 39.53615 22.57781 32990 ft 477 kts 147°
2026-05-06 18:37 39.47225 22.63457 33007 ft 476 kts 147°
2026-05-06 18:38 39.41790 22.68276 32982 ft 477 kts 147°
2026-05-06 18:38 39.36271 22.73152 33006 ft 477 kts 147°
2026-05-06 18:39 39.30797 22.77984 33044 ft 477 kts 147°
2026-05-06 18:40 39.22566 22.85235 33024 ft 478 kts 147°
2026-05-06 18:40 39.17075 22.90055 33029 ft 478 kts 148°
2026-05-06 18:41 39.11577 22.94874 33035 ft 478 kts 148°
2026-05-06 18:41 39.06080 22.99684 33026 ft 478 kts 148°
2026-05-06 18:42 39.00577 23.04488 33034 ft 478 kts 148°
2026-05-06 18:42 38.95077 23.09283 33041 ft 478 kts 148°
2026-05-06 18:43 38.89571 23.14070 33049 ft 478 kts 148°
2026-05-06 18:43 38.84071 23.18846 33056 ft 478 kts 148°
2026-05-06 18:44 38.78561 23.23624 33050 ft 478 kts 148°
2026-05-06 18:44 38.73942 23.27626 33053 ft 478 kts 148°
2026-05-06 18:45 38.68433 23.32382 33058 ft 478 kts 148°
2026-05-06 18:45 38.62914 23.37136 33046 ft 478 kts 148°
2026-05-06 18:46 38.57419 23.41866 33008 ft 479 kts 148°
2026-05-06 18:46 38.52026 23.46496 33027 ft 479 kts 148°
2026-05-06 18:47 38.46352 23.51359 33026 ft 479 kts 148°
2026-05-06 18:47 38.40960 23.55976 33033 ft 479 kts 148°
2026-05-06 18:48 38.37271 23.59126 33043 ft 479 kts 148°
2026-05-06 18:48 38.31722 23.63853 33037 ft 480 kts 148°
2026-05-06 18:49 38.26199 23.68562 33054 ft 480 kts 148°
2026-05-06 18:49 38.21038 23.72954 33108 ft 480 kts 148°
2026-05-06 18:50 38.15981 23.77264 33123 ft 480 kts 147°
2026-05-06 18:50 38.10523 23.82065 33127 ft 480 kts 147°
2026-05-06 18:51 38.05007 23.86932 33129 ft 480 kts 147°
2026-05-06 18:51 37.99511 23.91747 33128 ft 480 kts 147°
2026-05-06 18:52 37.94044 23.96534 33124 ft 480 kts 147°
2026-05-06 18:52 37.88512 24.01368 33118 ft 480 kts 147°
2026-05-06 18:53 37.83011 24.06170 33112 ft 480 kts 147°
2026-05-06 18:53 37.77512 24.10952 33106 ft 480 kts 147°
2026-05-06 18:54 37.72009 24.15736 33099 ft 480 kts 147°
2026-05-06 18:54 37.66503 24.20520 33096 ft 480 kts 147°
2026-05-06 18:55 37.60994 24.25290 33095 ft 480 kts 147°
2026-05-06 18:55 37.55480 24.30026 33085 ft 480 kts 149°
2026-05-06 18:56 37.49825 24.34512 33082 ft 480 kts 150°
2026-05-06 18:56 37.44151 24.38945 33095 ft 480 kts 150°
2026-05-06 18:57 37.38485 24.43390 33102 ft 480 kts 149°
2026-05-06 18:57 37.32821 24.47831 33108 ft 480 kts 150°
2026-05-06 18:58 37.27105 24.52298 33115 ft 480 kts 150°
2026-05-06 18:58 37.21434 24.56723 33123 ft 480 kts 150°
2026-05-06 18:59 37.15770 24.61136 33129 ft 480 kts 150°
2026-05-06 18:59 37.10085 24.65549 33130 ft 479 kts 150°
2026-05-06 19:00 37.04462 24.69922 33111 ft 479 kts 150°
2026-05-06 19:00 36.98794 24.74319 33072 ft 479 kts 150°
2026-05-06 19:01 36.93124 24.78692 33040 ft 479 kts 150°
2026-05-06 19:01 36.87458 24.83070 33039 ft 478 kts 150°
2026-05-06 19:02 36.81823 24.87446 33039 ft 475 kts 150°
2026-05-06 19:02 36.76235 24.91761 32904 ft 470 kts 150°
2026-05-06 19:02 36.73446 24.93907 32458 ft 472 kts 150°
2026-05-06 19:03 36.70646 24.96059 31779 ft 473 kts 150°
2026-05-06 19:03 36.67849 24.98212 31106 ft 474 kts 150°
2026-05-06 19:03 36.65044 25.00372 30451 ft 474 kts 149°
2026-05-06 19:03 36.62234 25.02528 29771 ft 474 kts 150°
2026-05-06 19:04 36.59421 25.04680 29101 ft 474 kts 149°
2026-05-06 19:04 36.56578 25.06854 28481 ft 473 kts 149°
2026-05-06 19:04 36.53816 25.08964 27878 ft 471 kts 149°
2026-05-06 19:04 36.51027 25.11094 27260 ft 469 kts 149°
2026-05-06 19:05 36.48214 25.13242 26634 ft 468 kts 149°
2026-05-06 19:05 36.45457 25.15347 26046 ft 465 kts 149°
2026-05-06 19:05 36.42708 25.17442 25466 ft 463 kts 149°
2026-05-06 19:05 36.39966 25.19529 24872 ft 460 kts 149°
2026-05-06 19:06 36.37277 25.21574 24274 ft 458 kts 149°
2026-05-06 19:06 36.34570 25.23631 23675 ft 456 kts 149°
2026-05-06 19:06 36.31868 25.25682 23089 ft 453 kts 149°
2026-05-06 19:06 36.29184 25.27717 22518 ft 450 kts 149°
2026-05-06 19:07 36.26518 25.29739 21907 ft 448 kts 149°
2026-05-06 19:07 36.23861 25.31756 21318 ft 446 kts 149°
2026-05-06 19:07 36.21228 25.33752 20741 ft 443 kts 149°
2026-05-06 19:07 36.18607 25.35732 20168 ft 440 kts 149°
2026-05-06 19:08 36.16002 25.37697 19589 ft 438 kts 149°
2026-05-06 19:08 36.13404 25.39633 19006 ft 435 kts 151°
2026-05-06 19:08 36.10673 25.41203 18429 ft 431 kts 161°
2026-05-06 19:08 36.07848 25.42413 17894 ft 427 kts 163°
2026-05-06 19:09 36.05024 25.43505 17348 ft 424 kts 164°
2026-05-06 19:09 36.02171 25.44580 16783 ft 422 kts 164°
2026-05-06 19:09 35.99384 25.45658 16255 ft 419 kts 163°
2026-05-06 19:09 35.96617 25.46771 15732 ft 416 kts 163°
2026-05-06 19:10 35.93884 25.47894 15212 ft 412 kts 162°
2026-05-06 19:10 35.91169 25.49007 14659 ft 410 kts 162°
2026-05-06 19:10 35.88467 25.50099 14116 ft 408 kts 163°
2026-05-06 19:10 35.85790 25.51166 13578 ft 402 kts 163°
2026-05-06 19:11 35.83139 25.52219 13052 ft 397 kts 163°
2026-05-06 19:11 35.80541 25.53257 12557 ft 390 kts 162°
2026-05-06 19:11 35.77979 25.54284 12026 ft 385 kts 162°
2026-05-06 19:11 35.75442 25.55302 11494 ft 381 kts 162°
2026-05-06 19:12 35.72937 25.56303 10972 ft 376 kts 162°
2026-05-06 19:12 35.70438 25.57321 10557 ft 368 kts 160°
2026-05-06 19:12 35.68237 25.58791 10359 ft 354 kts 144°
2026-05-06 19:12 35.66331 25.60595 10223 ft 339 kts 140°
2026-05-06 19:13 35.64558 25.62421 10085 ft 325 kts 139°
2026-05-06 19:13 35.62868 25.64179 9951 ft 312 kts 139°
2026-05-06 19:13 35.61194 25.65794 9706 ft 304 kts 148°
2026-05-06 19:13 35.59214 25.66669 9178 ft 305 kts 174°
2026-05-06 19:14 35.57125 25.66415 8710 ft 302 kts 199°
2026-05-06 19:14 35.55308 25.65195 8287 ft 296 kts 222°
2026-05-06 19:14 35.54012 25.63238 7833 ft 290 kts 245°
2026-05-06 19:14 35.53434 25.60933 7391 ft 285 kts 266°
2026-05-06 19:15 35.53544 25.58540 6958 ft 280 kts 281°
2026-05-06 19:15 35.53695 25.56203 6512 ft 280 kts 266°
2026-05-06 19:15 35.53093 25.53912 6066 ft 280 kts 241°
2026-05-06 19:15 35.52018 25.51969 5671 ft 278 kts 235°
2026-05-06 19:16 35.51228 25.50679 5371 ft 277 kts 234°
2026-05-06 19:16 35.49813 25.48267 4839 ft 274 kts 237°
2026-05-06 19:16 35.48776 25.46313 4428 ft 271 kts 239°
2026-05-06 19:16 35.48099 25.44997 4152 ft 269 kts 239°
2026-05-06 19:17 35.46748 25.42443 3620 ft 265 kts 234°
2026-05-06 19:17 35.45922 25.41353 3387 ft 262 kts 219°
2026-05-06 19:17 35.44283 25.40459 3199 ft 253 kts 189°
2026-05-06 19:17 35.42607 25.40650 3074 ft 242 kts 161°
2026-05-06 19:18 35.41145 25.41581 3030 ft 227 kts 149°
2026-05-06 19:18 35.39843 25.42592 3015 ft 218 kts 150°
2026-05-06 19:18 35.38548 25.43522 3028 ft 212 kts 153°
2026-05-06 19:18 35.37223 25.44119 2992 ft 197 kts 177°
2026-05-06 19:19 35.35954 25.43728 2865 ft 189 kts 216°
2026-05-06 19:19 35.35150 25.42460 2407 ft 190 kts 246°
2026-05-06 19:19 35.34658 25.40966 2187 ft 182 kts 249°
2026-05-06 19:19 35.34169 25.39555 2219 ft 181 kts 247°
2026-05-06 19:20 35.33632 25.38162 2246 ft 181 kts 245°
2026-05-06 19:20 35.33083 25.36773 2263 ft 182 kts 245°
2026-05-06 19:20 35.32715 25.35312 2234 ft 179 kts 265°
2026-05-06 19:20 35.32801 25.33809 2007 ft 172 kts 277°
2026-05-06 19:21 35.32956 25.32409 1974 ft 161 kts 276°
2026-05-06 19:21 35.33066 25.31064 1992 ft 161 kts 275°
2026-05-06 19:21 35.33155 25.29718 1994 ft 156 kts 274°
2026-05-06 19:21 35.33238 25.28382 1856 ft 157 kts 274°
2026-05-06 19:22 35.33330 25.27071 1543 ft 149 kts 275°
2026-05-06 19:22 35.33419 25.25833 1247 ft 143 kts 274°
2026-05-06 19:22 35.33506 25.24661 1062 ft 139 kts 274°
2026-05-06 19:22 35.33598 25.23446 885 ft 146 kts 274°
2026-05-06 19:23 35.33686 25.22199 684 ft 147 kts 273°
2026-05-06 19:23 35.33761 25.20956 492 ft 146 kts 273°
2026-05-06 19:23 35.33848 25.19716 283 ft 146 kts 274°
2026-05-06 19:23 35.33941 25.18489 150 ft 138 kts 274°
2026-05-06 19:24 35.34015 25.17454 129 ft 90 kts 274°
2026-05-06 19:24 35.34046 25.16990 129 ft 7 kts 274°
2026-05-06 19:24 35.34052 25.16877 129 ft 22 kts 274°
2026-05-06 19:24 35.34050 25.16857 129 ft 4 kts 233°
2026-05-06 19:25 35.34004 25.16878 130 ft 13 kts 144°
2026-05-06 19:25 35.33962 25.16933 129 ft 7 kts 124°
2026-05-06 19:25 35.33947 25.16981 129 ft 5 kts 90°
2026-05-06 19:25 35.33945 25.17037 129 ft 9 kts 92°
2026-05-06 19:26 35.33940 25.17116 129 ft 10 kts 95°
2026-05-06 19:26 35.33933 25.17203 129 ft 11 kts 97°
2026-05-06 19:26 35.33926 25.17294 129 ft 10 kts 93°
2026-05-06 19:26 35.33924 25.17321 129 ft 2 kts 94°
2026-05-06 19:27 35.33922 25.17372 129 ft 10 kts 94°
2026-05-06 19:27 35.33915 25.17482 129 ft 14 kts 95°
2026-05-06 19:27 35.33906 25.17590 129 ft 5 kts 96°
2026-05-06 19:27 35.33889 25.17623 129 ft 5 kts 160°
2026-05-06 19:28 35.33851 25.17619 129 ft 5 kts 209°
2026-05-06 19:28 35.33840 25.17588 129 ft 4 kts 263°
2026-05-06 19:28 35.33853 25.17556 129 ft 4 kts 327°
2026-05-06 19:28 35.33866 25.17546 129 ft 0 kts 322°